Previsão horária em Jutrzenka

Hoje, 19 Junho, Sábado

Tempo Temperatura Precipitação Vento Pressão Humidade
00:00 +20°C° 0 mm 3 m/s 752 mmHg 77%
01:00 +20°C° 0 mm 3 m/s 752 mmHg 80%
02:00 +19°C° 0 mm 3 m/s 752 mmHg 82%
03:00 +19°C° 0 mm 3 m/s 752 mmHg 83%
04:00 +19°C° 0 mm 3 m/s 752 mmHg 85%
05:00 +21°C° 0 mm 3 m/s 752 mmHg 77%
06:00 +23°C° 0 mm 4 m/s 752 mmHg 68%
07:00 +26°C° 0 mm 4 m/s 752 mmHg 60%
08:00 +28°C° 0 mm 5 m/s 752 mmHg 55%
09:00 +29°C° 0 mm 5 m/s 752 mmHg 50%
10:00 +32°C° 0 mm 5 m/s 751 mmHg 45%
11:00 +33°C° 0 mm 5 m/s 751 mmHg 42%
12:00 +33°C° 0 mm 5 m/s 751 mmHg 39%
13:00 +34°C° 0 mm 4 m/s 751 mmHg 37%
14:00 +34°C° 0 mm 4 m/s 751 mmHg 37%
15:00 +34°C° 0 mm 4 m/s 750 mmHg 37%
16:00 +34°C° 0 mm 4 m/s 750 mmHg 37%
17:00 +31°C° 0 mm 3 m/s 750 mmHg 44%
18:00 +30°C° 0 mm 3 m/s 750 mmHg 50%
19:00 +28°C° 0 mm 2 m/s 750 mmHg 57%
20:00 +27°C° 0 mm 2 m/s 750 mmHg 63%
21:00 +25°C° 0 mm 2 m/s 750 mmHg 68%
22:00 +23°C° 0 mm 1 m/s 751 mmHg 74%
23:00 +23°C° 0 mm 1 m/s 751 mmHg 74%

Amanhã, 20 Junho, Domingo

Tempo Temperatura Precipitação Vento Pressão Humidade
00:00 +23°C° 0 mm 1 m/s 751 mmHg 75%
01:00 +22°C° 0 mm 1 m/s 751 mmHg 76%
02:00 +22°C° 0 mm 1 m/s 750 mmHg 76%
03:00 +22°C° 0 mm 1 m/s 750 mmHg 77%
04:00 +20°C° 0 mm 2 m/s 750 mmHg 78%
05:00 +23°C° 0 mm 2 m/s 750 mmHg 73%
06:00 +25°C° 0 mm 2 m/s 750 mmHg 69%
07:00 +26°C° 0 mm 2 m/s 750 mmHg 64%
08:00 +28°C° 0 mm 3 m/s 750 mmHg 58%
09:00 +29°C° 0 mm 4 m/s 750 mmHg 52%
10:00 +32°C° 0 mm 4 m/s 750 mmHg 46%
11:00 +32°C° 0 mm 5 m/s 749 mmHg 44%
12:00 +33°C° 0 mm 5 m/s 749 mmHg 42%
13:00 +33°C° 0 mm 5 m/s 749 mmHg 40%
14:00 +33°C° 0 mm 5 m/s 748 mmHg 40%
15:00 +33°C° 0 mm 5 m/s 748 mmHg 40%
16:00 +33°C° 0 mm 4 m/s 748 mmHg 40%
17:00 +32°C° 0 mm 4 m/s 748 mmHg 45%
18:00 +29°C° 0 mm 4 m/s 747 mmHg 50%
19:00 +28°C° 0 mm 4 m/s 747 mmHg 55%
20:00 +27°C° 0 mm 4 m/s 747 mmHg 60%
21:00 +25°C° 0 mm 3 m/s 747 mmHg 65%
22:00 +22°C° 0 mm 3 m/s 747 mmHg 70%
23:00 +22°C° 0 mm 3 m/s 747 mmHg 73%

Depois de amanhã, 21 Junho, Segunda-feira

Tempo Temperatura Precipitação Vento Pressão Humidade
00:00 +21°C° 0 mm 3 m/s 747 mmHg 76%
01:00 +21°C° 0 mm 3 m/s 747 mmHg 79%
02:00 +21°C° 0 mm 3 m/s 746 mmHg 81%
03:00 +20°C° 0 mm 3 m/s 746 mmHg 84%
04:00 +20°C° 0 mm 3 m/s 746 mmHg 87%
05:00 +22°C° 0 mm 4 m/s 746 mmHg 80%
06:00 +23°C° 0 mm 4 m/s 746 mmHg 74%
07:00 +26°C° 0 mm 5 m/s 746 mmHg 67%
08:00 +28°C° 0 mm 5 m/s 746 mmHg 61%
09:00 +29°C° 0 mm 5 m/s 746 mmHg 55%
10:00 +32°C° 0 mm 6 m/s 746 mmHg 48%
11:00 +32°C° 0 mm 6 m/s 745 mmHg 45%
12:00 +33°C° 0 mm 6 m/s 745 mmHg 42%
13:00 +34°C° 0 mm 5 m/s 745 mmHg 39%
14:00 +34°C° 0 mm 5 m/s 745 mmHg 39%
15:00 +33°C° 0 mm 5 m/s 745 mmHg 39%
16:00 +33°C° 0 mm 4 m/s 744 mmHg 40%
17:00 +30°C° 0.4 mm 4 m/s 745 mmHg 53%
18:00 +27°C° 0.4 mm 3 m/s 745 mmHg 67%
19:00 +24°C° 0.4 mm 3 m/s 745 mmHg 81%
20:00 +23°C° 1.5 mm 2 m/s 746 mmHg 86%
21:00 +21°C° 1.5 mm 2 m/s 746 mmHg 92%
22:00 +20°C° 1.5 mm 2 m/s 746 mmHg 98%
23:00 +19°C° 0.4 mm 2 m/s 746 mmHg 98%

22 Junho, Terça-feira

Tempo Temperatura Precipitação Vento Pressão Humidade
00:00 +19°C° 0.4 mm 2 m/s 746 mmHg 98%
01:00 +18°C° 0.4 mm 2 m/s 746 mmHg 98%
02:00 +18°C° 0 mm 2 m/s 746 mmHg 97%
03:00 +18°C° 0 mm 3 m/s 747 mmHg 96%
04:00 +17°C° 0 mm 3 m/s 747 mmHg 95%
05:00 +18°C° 0 mm 3 m/s 748 mmHg 93%
06:00 +18°C° 0 mm 3 m/s 748 mmHg 91%
07:00 +18°C° 0 mm 3 m/s 748 mmHg 89%
08:00 +19°C° 0 mm 3 m/s 749 mmHg 82%
09:00 +20°C° 0 mm 3 m/s 749 mmHg 75%
10:00 +22°C° 0 mm 3 m/s 749 mmHg 68%
11:00 +24°C° 0 mm 3 m/s 749 mmHg 62%
12:00 +25°C° 0 mm 3 m/s 750 mmHg 56%
13:00 +27°C° 0 mm 3 m/s 750 mmHg 50%
14:00 +26°C° 0 mm 3 m/s 750 mmHg 51%
15:00 +26°C° 0 mm 4 m/s 750 mmHg 52%
16:00 +25°C° 0 mm 4 m/s 750 mmHg 53%
17:00 +23°C° 0 mm 4 m/s 751 mmHg 58%
18:00 +21°C° 0 mm 3 m/s 751 mmHg 63%
19:00 +19°C° 0 mm 3 m/s 751 mmHg 68%
20:00 +18°C° 0 mm 2 m/s 751 mmHg 75%
21:00 +16°C° 0 mm 2 m/s 751 mmHg 81%
22:00 +15°C° 0 mm 1 m/s 752 mmHg 88%
23:00 +14°C° 0 mm 1 m/s 752 mmHg 88%

23 Junho, Quarta-feira

Tempo Temperatura Precipitação Vento Pressão Humidade
00:00 +14°C° 0 mm 1 m/s 752 mmHg 88%
01:00 +13°C° 0 mm 1 m/s 751 mmHg 89%
02:00 +14°C° 0 mm 1 m/s 751 mmHg 87%
03:00 +14°C° 0 mm 1 m/s 751 mmHg 86%
04:00 +14°C° 0 mm 1 m/s 751 mmHg 84%
05:00 +16°C° 0 mm 1 m/s 751 mmHg 76%
06:00 +19°C° 0 mm 1 m/s 752 mmHg 67%
07:00 +20°C° 0 mm 2 m/s 752 mmHg 58%
08:00 +23°C° 0 mm 2 m/s 752 mmHg 52%
09:00 +25°C° 0 mm 2 m/s 751 mmHg 46%
10:00 +27°C° 0 mm 2 m/s 751 mmHg 40%
11:00 +28°C° 0 mm 2 m/s 751 mmHg 39%
12:00 +29°C° 0 mm 3 m/s 751 mmHg 37%
13:00 +31°C° 0 mm 3 m/s 751 mmHg 36%
14:00 +31°C° 0 mm 3 m/s 750 mmHg 38%
15:00 +31°C° 0 mm 3 m/s 750 mmHg 41%
16:00 +32°C° 0 mm 4 m/s 750 mmHg 44%
17:00 +30°C° 0 mm 4 m/s 750 mmHg 52%
18:00 +28°C° 0 mm 4 m/s 750 mmHg 59%
19:00 +27°C° 0 mm 4 m/s 749 mmHg 67%
20:00 +25°C° 0 mm 3 m/s 749 mmHg 72%
21:00 +24°C° 0 mm 3 m/s 750 mmHg 77%
22:00 +21°C° 0 mm 3 m/s 750 mmHg 82%
23:00 +21°C° 0 mm 3 m/s 750 mmHg 84%

24 Junho, Quinta-feira

Tempo Temperatura Precipitação Vento Pressão Humidade
00:00 +21°C° 0 mm 3 m/s 749 mmHg 86%
01:00 +20°C° 0 mm 3 m/s 749 mmHg 88%
02:00 +21°C° 0 mm 3 m/s 748 mmHg 89%
03:00 +21°C° 0 mm 4 m/s 748 mmHg 89%
04:00 +21°C° 0 mm 4 m/s 747 mmHg 89%
05:00 +21°C° 0.1 mm 4 m/s 748 mmHg 87%
06:00 +20°C° 0.1 mm 5 m/s 748 mmHg 84%
07:00 +20°C° 0.1 mm 6 m/s 748 mmHg 81%
08:00 +20°C° 0 mm 6 m/s 749 mmHg 80%
09:00 +19°C° 0 mm 6 m/s 749 mmHg 79%
10:00 +19°C° 0 mm 6 m/s 750 mmHg 78%
11:00 +20°C° 0 mm 6 m/s 750 mmHg 69%
12:00 +22°C° 0 mm 7 m/s 751 mmHg 61%
13:00 +24°C° 0 mm 7 m/s 751 mmHg 52%
14:00 +24°C° 0 mm 6 m/s 752 mmHg 50%
15:00 +25°C° 0 mm 5 m/s 752 mmHg 49%
16:00 +25°C° 0 mm 5 m/s 752 mmHg 47%
17:00 +23°C° 0 mm 4 m/s 752 mmHg 52%
18:00 +22°C° 0 mm 3 m/s 752 mmHg 56%
19:00 +21°C° 0 mm 3 m/s 752 mmHg 60%
20:00 +20°C° 0 mm 2 m/s 752 mmHg 66%
21:00 +18°C° 0 mm 2 m/s 753 mmHg 72%
22:00 +16°C° 0 mm 1 m/s 753 mmHg 78%
23:00 +16°C° 0 mm 1 m/s 753 mmHg 79%
Mostrar mais

Necessitamos do seu Consentimento

A Meteoprog e os seus Fornecedores de Serviços podem armazenar e aceder a dados pessoais como cookies, identificadores do dispositivo ou outras tecnologias semelhantes existentes no seu dispositivo e processar estes dados para personalizar conteúdos e anúncios, assim como funcionalidades nas redes sociais e análise de tráfego.

  • Armazenar e/ou aceder a informações no seu dispositivo

    Os cookies, identificadores do dispositivo ou outras informações podem ser armazenados ou acedidos no seu dispositivo, para os fins acima indicados.

  • Anúncios e conteúdos personalizados, medição de anúncios e conteúdos, dados sobre o público-alvo e desenvolvimento de produtos

    Os anúncios e os conteúdos podem ser personalizados com base num perfil. Podem ser adicionados dados adicionais para uma maior personalização dos anúncios e dos conteúdos. A eficácia dos anúncios e dos conteúdos pode ser medida. Podem ser obtidas informações sobre o público que visualizou os anúncios e os conteúdos. Estes dados podem ser usados para desenvolver ou melhorar sistemas, softwares ou a experiência do utilizador.

Ao clicar em "Eu concordo”, permitirá o uso de cookies, identificadores do dispositivo e web beacons mencionados ou outras tecnologias semelhantes. As configurações do navegador do seu dispositivo podem ser alteradas.

Para certos fins, podem ser invocados interesses legítimos ao invés de consentimento. Pode ler mais informação sobre este assunto na nossa Política de Privacidade e Cookies.